Lapse_Rate
7.7 7.6 7.3 7.4 7.4 7.2 7.1 7.0 6.9 6.7 6.6 6.6 6.7 6.5 6.2 6.1 6.0 6.0 6.1 6.0 5.8 5.8 5.8 5.9 5.8 5.8 5.7 5.7 5.7 5.8 5.9 5.9 5.8 6.2 6.5 6.6 6.5 6.7 6.8 6.7 6.7 6.6 6.6
7.9 7.6 7.5 7.5 7.4 7.2 7.1 7.0 6.8 6.7 6.7 6.6 6.6 6.6 6.3 6.1 6.0 6.0 6.0 6.1 6.2 6.1 5.9 6.0 5.8 5.8 5.7 5.8 5.8 5.9 5.9 5.9 6.1 6.1 6.3 6.5 6.6 6.8 6.7 6.7 6.7 6.6 6.5
7.7 7.4 7.5 7.5 7.4 7.3 7.3 7.2 7.0 6.9 6.8 6.7 6.6 6.6 6.6 6.3 6.1 6.0 6.0 6.0 6.0 6.0 6.0 5.8 5.8 5.9 5.8 5.8 5.8 6.0 6.0 6.1 6.1 6.4 6.3 6.5 6.8 6.8 6.6 6.7 6.7 6.7 6.6
7.5 7.6 7.5 7.5 7.5 7.5 7.5 7.3 7.2 7.0 7.0 6.8 6.7 6.6 6.6 6.7 6.3 6.1 6.0 5.9 5.9 5.9 5.9 5.8 5.9 5.9 5.8 5.8 5.8 6.0 6.1 6.2 6.4 6.6 6.8 6.7 6.9 7.0 6.8 6.8 6.8 6.8 6.5
7.3 7.3 7.3 7.4 7.5 7.6 7.7 7.6 7.5 7.3 7.1 7.0 7.0 6.8 6.7 6.7 6.6 6.2 6.1 6.0 5.9 5.9 5.9 5.8 5.8 5.8 5.8 5.8 5.8 5.8 5.9 6.1 6.4 6.8 7.0 6.7 6.9 6.9 6.8 6.9 6.7 6.7 6.6
7.4 7.5 7.6 7.6 7.5 7.6 7.7 7.7 7.6 7.4 7.3 7.2 7.2 7.1 6.9 6.8 6.7 6.4 6.2 6.0 6.0 6.0 5.9 5.8 5.7 5.7 5.8 5.8 5.8 5.9 6.0 6.0 6.2 6.5 6.8 7.1 6.7 7.0 6.9 6.9 6.7 6.7 6.7
7.6 7.6 7.6 7.7 7.6 7.7 7.7 7.7 7.7 7.7 7.5 7.3 7.2 7.2 7.1 7.0 6.8 6.6 6.3 6.1 6.0 5.9 5.9 5.9 5.8 5.7 5.7 5.8 5.9 5.9 5.9 6.2 6.3 6.4 6.4 7.0 7.2 6.9 6.9 6.8 6.7 6.7 6.7
7.5 7.6 7.7 7.8 7.8 7.8 7.8 7.7 7.6 7.6 7.5 7.4 7.3 7.2 7.1 7.1 7.0 6.7 6.4 6.2 6.1 5.9 5.9 5.9 5.7 5.6 5.5 5.7 5.8 6.0 6.0 6.3 6.4 6.7 6.5 6.7 7.1 6.8 6.8 6.7 6.8 6.7 6.6
7.5 7.5 7.6 7.7 7.7 7.7 7.7 7.6 7.6 7.5 7.5 7.5 7.4 7.2 7.1 7.0 7.1 6.9 6.5 6.3 6.1 6.0 5.8 5.8 5.7 5.6 5.5 5.6 5.7 5.9 5.9 5.9 6.2 5.7 6.2 6.6 6.8 6.6 6.7 6.7 6.7 6.6 6.6
7.5 7.6 7.5 7.6 7.8 7.8 7.6 7.5 7.4 7.5 7.4 7.4 7.5 7.3 7.2 7.1 7.1 7.1 6.7 6.4 6.1 6.0 5.8 5.8 5.7 5.7 5.6 5.6 5.8 5.7 5.6 5.3 6.0 5.3 5.8 6.5 6.4 6.4 6.5 6.7 6.6 6.6 6.7
7.5 7.6 7.7 7.8 7.7 7.6 7.5 7.5 7.5 7.5 7.5 7.6 7.6 7.5 7.3 7.2 7.1 7.1 7.0 6.6 6.2 6.1 5.9 5.7 5.8 5.7 5.6 5.5 5.6 5.8 5.8 5.6 5.8 5.6 5.3 6.1 6.1 6.0 6.1 6.6 6.5 6.5 6.7
7.4 7.5 7.6 7.9 7.7 7.6 7.5 7.6 7.7 7.8 7.7 7.7 7.7 7.6 7.6 7.4 7.2 7.1 7.1 6.8 6.5 6.3 6.0 5.8 5.9 5.7 5.7 5.8 6.0 5.8 5.8 5.6 6.0 5.4 5.2 5.8 6.0 5.8 6.1 6.3 6.5 6.6 6.6
6.9 7.2 7.7 7.9 7.8 7.8 7.7 7.7 7.7 7.7 7.8 7.8 7.7 7.5 7.4 7.5 7.3 7.3 7.3 7.0 6.6 6.4 6.1 5.9 5.9 5.7 5.7 5.7 5.9 5.9 5.7 6.0 5.9 5.5 5.4 6.0 5.9 5.7 6.0 6.2 6.3 6.4 6.4
6.6 6.8 7.1 7.4 7.5 7.7 7.6 7.8 7.8 7.6 7.7 7.8 7.6 7.6 7.4 7.4 7.4 7.3 7.5 7.2 6.8 6.5 6.3 5.9 5.7 5.8 5.7 5.8 5.9 5.9 5.9 6.0 5.9 5.3 5.3 5.9 5.7 5.7 6.0 6.0 6.2 6.3 6.3
6.8 6.9 7.1 7.2 7.5 7.3 7.3 7.6 7.7 7.8 7.8 7.7 7.5 7.6 7.6 7.4 7.4 7.1 7.4 7.3 6.9 6.6 6.5 6.2 5.9 5.8 5.7 5.8 5.9 6.0 6.0 5.8 5.8 5.4 5.3 5.5 5.4 5.7 5.8 6.0 6.1 6.1 6.2
6.4 6.7 6.8 6.9 7.1 7.7 7.3 7.3 7.6 7.8 8.0 7.8 7.6 7.5 7.6 7.7 7.2 7.3 7.5 7.3 7.0 6.7 6.6 6.4 6.1 5.9 5.8 5.8 5.8 6.2 6.2 6.0 5.5 5.6 5.2 5.3 5.6 5.6 5.6 5.7 5.9 6.0 6.1
6.8 7.1 7.2 7.1 7.1 7.0 7.2 7.1 7.5 7.6 7.8 7.9 7.9 7.7 7.4 7.4 7.4 7.2 7.5 7.3 7.0 6.7 6.7 6.5 6.3 6.0 5.9 5.7 5.9 6.1 6.2 6.2 5.5 5.5 5.2 5.4 5.6 5.4 5.5 5.2 5.7 5.8 6.1
6.3 6.4 6.5 6.9 7.1 7.2 6.9 6.9 7.4 7.7 7.7 7.8 7.8 7.9 7.9 7.6 7.3 7.3 7.7 7.4 7.1 6.8 6.9 6.7 6.3 6.1 5.7 5.7 5.7 6.1 6.2 5.9 5.6 5.3 5.4 5.7 5.4 5.4 5.6 5.5 5.6 5.9 6.1
6.5 6.3 6.3 6.5 6.7 6.9 7.1 7.6 7.5 7.3 7.8 7.8 7.7 8.0 8.0 8.0 7.6 7.4 7.7 7.6 7.3 6.9 7.0 6.9 6.5 6.1 5.8 5.7 5.6 6.1 6.1 5.9 5.7 4.9 5.4 5.3 5.5 5.3 5.6 5.7 5.8 6.0 6.3
6.7 6.5 6.6 6.8 6.8 6.8 7.1 7.4 7.8 7.9 8.0 8.1 7.9 8.2 8.1 7.9 7.8 7.5 7.7 7.8 7.5 7.0 7.1 7.0 6.7 6.4 6.0 5.5 5.4 5.8 6.0 5.8 5.9 5.0 5.2 5.6 5.3 5.2 5.5 5.6 5.8 6.0 6.2
6.7 6.6 6.8 6.8 7.3 7.4 7.3 7.6 8.2 8.1 8.4 8.4 8.1 8.3 8.1 7.9 7.7 7.8 7.8 7.8 7.7 7.1 7.1 7.0 6.7 6.4 6.3 5.4 5.2 5.5 5.7 5.6 5.6 5.5 5.1 5.0 5.1 5.5 5.7 5.7 5.8 5.9 6.0
6.3 6.7 6.7 7.2 7.5 7.9 7.9 8.0 8.1 8.4 8.6 8.5 8.4 8.2 8.3 8.0 7.9 7.9 8.1 8.1 7.9 7.3 7.2 7.0 6.8 6.5 6.4 5.6 5.7 5.9 5.6 5.6 5.3 6.0 5.0 5.2 5.3 5.5 5.4 5.6 5.7 5.8 6.0
6.0 6.1 6.6 7.1 7.6 8.0 8.1 8.2 8.2 8.2 8.2 8.4 8.1 8.2 8.3 8.2 7.5 7.6 8.2 8.3 8.3 7.8 7.3 7.1 6.7 6.7 6.5 6.1 6.3 5.9 5.7 5.7 5.6 5.9 5.6 5.3 5.4 5.5 5.5 5.7 5.7 5.7 5.8
5.9 6.7 6.9 6.9 7.1 7.6 8.0 8.1 8.1 8.2 8.5 8.4 8.3 8.7 8.6 8.2 7.8 7.3 7.4 7.6 7.9 7.8 7.2 6.9 6.6 6.8 6.5 6.2 6.1 5.9 5.7 5.8 5.7 5.7 5.8 5.6 5.6 5.4 5.3 5.5 5.5 5.3 5.8
6.6 6.9 6.9 6.8 7.2 7.5 7.8 8.0 8.4 8.6 8.8 8.6 8.6 8.7 8.5 8.2 7.9 8.1 7.0 6.1 7.2 7.7 7.1 7.1 7.0 7.0 6.6 6.2 6.1 6.2 6.0 5.8 5.9 5.6 5.8 5.9 5.5 5.3 5.3 5.3 5.3 5.3 5.5
6.7 6.1 6.7 7.2 7.5 7.6 8.1 8.4 8.8 9.1 9.3 9.0 8.5 8.4 8.4 8.1 7.7 7.6 6.7 6.6 7.0 7.1 7.4 7.2 7.0 6.9 6.5 6.1 6.2 6.2 6.1 6.2 6.1 6.0 5.9 5.7 5.4 5.5 5.6 5.5 5.4 5.3 5.4
Wind_Speed
7 16 21 19 18 15 13 11 12 14 18 21 23 24 25 25 24 24 25 23 22 20 21 19 17 15 16 14 14 14 13 12 14 16 18 19 18 17 17 15 16 17 17
9 16 21 20 18 15 13 11 11 12 15 16 19 22 22 23 23 23 24 24 23 21 21 20 17 15 15 14 15 15 14 16 18 17 19 18 17 17 17 14 14 18 17
14 16 21 20 19 16 14 12 12 13 14 14 16 19 21 21 22 21 21 22 21 20 20 19 17 17 15 14 16 17 16 17 18 20 19 17 17 17 16 15 16 17 17
14 18 20 21 21 18 15 14 13 12 13 13 13 16 18 20 20 19 19 19 20 20 19 19 18 16 16 16 17 18 18 18 20 20 16 15 18 18 17 16 17 17 17
15 19 21 22 20 18 16 15 13 12 14 15 12 13 16 19 20 19 18 18 19 19 19 19 17 15 19 19 19 20 19 20 20 19 16 15 15 18 18 18 17 17 17
15 18 20 22 21 19 19 18 17 16 16 16 15 14 15 17 18 18 18 19 19 19 19 18 16 15 19 19 18 19 19 19 21 15 16 14 14 19 19 17 18 17 19
7 13 21 22 23 22 21 21 20 20 19 18 17 16 16 17 18 19 19 19 18 18 17 18 18 16 18 17 18 18 19 20 15 15 15 17 14 19 19 18 18 19 19
8 8 15 17 18 18 19 19 20 21 21 20 20 17 15 15 16 17 19 19 19 18 18 17 19 16 15 17 18 19 18 19 16 17 15 16 16 20 21 19 19 20 20
2 6 7 13 15 13 14 16 17 18 19 21 21 19 17 17 17 17 17 18 19 19 19 17 17 17 18 19 21 21 23 18 12 14 15 15 20 20 22 22 21 21 22
3 4 7 8 11 14 15 16 17 17 17 17 18 19 20 19 18 17 17 16 18 18 17 17 18 19 20 22 22 25 26 20 13 14 14 15 22 24 23 23 23 22 23
4 3 4 5 7 10 11 13 13 14 16 16 16 17 19 16 16 16 16 16 15 18 18 19 20 20 19 18 19 19 16 12 11 10 12 18 23 23 25 24 23 23 23
7 7 6 4 4 6 8 10 14 15 15 15 15 16 16 15 15 15 14 17 15 17 17 18 20 21 20 14 14 16 12 12 11 8 11 19 23 23 24 24 23 23 23
8 8 9 6 6 6 5 8 8 10 11 11 13 13 13 13 14 13 12 13 13 15 12 12 13 15 15 14 14 14 12 11 8 10 7 17 25 25 24 25 25 24 23
8 11 13 15 10 7 6 5 8 7 9 7 11 15 11 6 8 8 7 11 12 12 10 12 10 13 14 15 16 14 12 10 6 3 7 13 26 27 27 26 27 26 25
9 11 13 15 15 12 10 6 6 9 8 11 11 16 14 7 9 6 7 10 11 12 11 9 10 11 12 14 14 12 11 10 6 4 8 15 29 29 28 26 23 23 24
12 11 11 15 16 16 15 14 9 9 11 10 10 13 16 12 7 7 7 7 8 12 10 10 7 8 8 10 10 11 12 11 6 2 5 14 26 29 27 25 24 24 24
12 15 10 13 13 15 19 15 11 11 11 10 8 14 15 13 9 8 7 7 8 11 12 8 7 6 6 8 10 7 11 10 8 2 5 13 16 26 25 20 22 22 22
12 12 15 10 13 19 17 13 11 11 11 8 9 13 18 15 13 7 7 7 12 10 8 6 6 6 7 6 5 6 9 9 9 7 5 9 13 17 25 29 26 21 22
13 14 15 13 13 16 17 13 14 15 11 11 10 11 16 17 15 8 8 8 14 8 7 7 6 7 7 6 7 6 6 7 6 4 5 4 13 16 17 23 22 21 21
13 13 15 13 13 14 12 11 9 9 11 10 12 12 16 14 16 9 8 9 9 9 7 7 8 7 7 6 6 6 6 5 5 5 4 4 5 11 16 17 17 18 22
12 16 15 16 16 11 11 12 11 12 12 12 12 14 13 12 14 12 8 9 10 9 10 10 8 11 5 7 4 3 2 4 5 5 5 4 5 6 9 15 15 15 21
17 14 18 17 16 13 12 12 12 12 11 11 8 11 14 14 13 12 12 11 11 8 11 11 9 5 4 9 4 4 3 1 1 6 5 6 7 8 6 13 16 17 17
18 18 16 20 19 16 16 12 10 9 5 7 10 12 15 16 14 12 13 11 11 10 9 11 11 10 7 8 9 4 3 3 2 1 7 7 8 6 7 10 15 16 16
18 18 17 19 19 17 16 16 19 13 14 13 12 9 10 12 11 8 6 11 12 8 10 11 10 9 8 9 7 7 2 5 4 3 2 5 8 10 8 7 14 16 17
16 17 16 19 19 17 17 19 16 15 13 10 10 14 12 15 16 15 10 14 12 10 11 14 11 10 9 7 6 4 2 2 4 3 3 3 2 8 8 8 10 15 18
16 16 17 19 19 18 19 18 20 20 16 11 13 12 12 12 11 15 19 15 12 11 11 12 12 13 10 8 7 7 9 6 6 4 2 8 8 4 5 5 6 10 16
Wind_Direction
183 163 149 147 149 158 156 160 146 141 148 154 156 159 160 159 157 154 151 151 153 155 153 153 152 156 163 162 161 158 157 150 144 143 140 135 135 134 129 122 132 127 125
153 166 150 145 149 157 157 157 143 133 140 150 160 160 159 158 156 157 153 152 156 160 155 156 159 158 158 164 158 154 150 151 144 138 133 132 135 134 131 123 133 127 128
153 160 155 142 147 156 160 156 149 142 134 139 153 160 158 158 158 156 156 155 158 160 156 161 159 152 157 155 161 157 152 150 143 141 144 144 140 135 134 130 126 133 129
155 159 162 151 151 155 160 156 154 146 134 133 145 152 154 155 157 157 157 157 157 158 159 166 161 156 145 152 155 155 155 151 148 141 148 151 148 141 141 136 135 135 134
168 167 167 156 151 153 155 156 156 152 144 138 140 147 153 156 157 159 158 158 159 160 163 168 165 157 152 155 154 155 153 148 143 152 152 154 152 147 148 144 142 136 143
175 171 160 156 156 154 158 161 161 162 157 148 145 151 158 156 155 156 158 162 163 164 167 168 161 164 162 159 156 154 152 148 152 157 155 146 156 155 153 152 138 135 131
217 179 167 157 159 162 166 167 166 164 161 157 158 159 162 161 157 159 163 169 169 171 174 169 163 171 169 159 155 155 155 154 162 165 162 160 168 159 158 150 142 137 134
204 213 174 162 161 166 171 171 168 168 165 163 166 170 167 162 161 166 173 174 175 178 181 182 170 177 166 161 159 160 158 165 168 168 171 169 172 168 160 153 143 138 132
144 195 191 175 174 168 176 175 173 172 171 169 170 171 172 175 173 177 185 186 185 186 184 181 179 175 170 168 166 164 166 171 175 170 172 180 178 178 163 155 145 139 133
94 192 206 198 182 187 190 183 182 181 179 178 178 176 174 178 182 184 190 191 189 184 187 190 182 176 178 178 172 171 170 162 181 180 179 190 187 178 165 158 152 144 139
133 177 206 213 211 199 194 194 189 189 186 187 187 186 180 185 189 189 194 192 191 190 194 192 184 181 176 169 167 169 160 162 180 181 195 193 188 181 165 158 154 148 142
185 186 200 206 221 221 218 211 201 201 196 190 198 198 195 190 189 193 195 195 191 193 197 187 183 177 173 179 176 165 180 179 182 187 202 201 188 184 169 161 153 149 146
201 183 193 201 215 215 218 214 216 204 205 195 194 199 203 193 188 190 193 195 198 191 194 195 184 186 185 187 185 188 190 179 184 204 205 214 191 181 174 165 157 152 148
225 220 195 190 191 212 222 218 215 217 206 206 198 198 196 196 192 187 189 189 188 189 187 194 190 191 193 197 196 193 189 190 191 142 258 250 206 180 174 164 162 158 155
261 246 214 198 197 194 201 216 214 216 217 214 199 200 194 195 198 179 184 181 189 186 188 194 192 191 197 203 203 198 192 192 167 146 258 260 212 184 171 170 168 163 166
304 281 246 215 206 190 200 195 207 214 215 213 204 207 198 196 194 185 178 178 182 181 174 181 187 191 200 206 208 203 201 191 142 117 290 284 206 190 170 171 172 174 178
313 310 278 243 230 211 210 204 199 203 213 214 208 200 196 198 195 184 179 178 181 173 165 161 177 181 204 210 211 190 193 161 139 155 285 280 205 179 169 182 176 179 181
325 316 305 280 228 214 213 211 204 201 199 202 203 203 195 191 188 182 186 183 184 164 162 165 169 177 195 195 188 196 195 172 154 161 233 260 198 181 173 180 190 180 181
327 321 312 295 261 231 220 210 211 211 198 198 198 201 199 185 182 186 189 186 182 172 170 169 174 182 183 194 190 174 177 179 173 146 208 227 228 184 178 183 180 181 183
329 322 314 311 276 248 226 218 214 205 207 202 201 202 201 184 176 185 187 185 178 178 171 173 179 184 191 183 176 168 178 176 169 176 199 180 244 215 182 178 177 189 185
333 327 323 311 307 271 224 209 213 216 209 206 199 193 195 184 180 186 182 185 180 181 176 175 179 182 169 158 123 105 83 171 195 194 184 168 190 224 182 182 184 193 192
330 325 319 310 303 295 245 222 211 212 218 211 195 192 188 183 185 182 181 185 178 177 175 178 178 172 178 172 156 126 154 101 200 204 192 193 183 181 191 194 189 191 193
326 324 319 310 301 290 283 233 214 212 214 190 192 190 198 187 183 181 192 181 177 178 180 182 183 178 184 187 168 140 153 186 132 179 198 198 177 184 186 196 191 189 195
324 322 319 309 299 289 277 243 211 205 207 206 200 193 186 164 163 172 204 194 189 181 181 185 189 186 181 187 179 203 201 151 172 167 202 199 192 190 185 196 194 196 196
331 327 318 308 297 288 280 242 213 208 211 208 199 177 171 170 171 169 141 226 201 185 191 186 184 187 195 187 187 166 166 177 165 148 152 175 209 199 190 181 196 201 200
336 327 320 312 308 300 293 233 216 212 207 195 191 182 184 180 186 177 182 185 197 191 193 187 187 197 196 196 191 183 200 188 186 168 151 191 191 182 173 168 191 202 204